This is the latest recevied weather packets stored in our database for station/object HB9GFF-10. If no packets are shown the sender has not sent any weather packets the latest 10 day(s).
| Time | Temp. | Humidity | Pressure | Rain* | Wind** | Luminosity | Snow |
|---|---|---|---|---|---|---|---|
| 1777543840 | 17.22° C | 37% | 959 hPa | - | - | - | - |
| 1777543774 | 17.78° C | 36% | 959 hPa | - | - | - | - |
| 1777543709 | 17.22° C | 37% | 959 hPa | - | - | - | - |
| 1777543644 | 17.78° C | 37% | 959 hPa | - | - | - | - |
| 1777543578 | 17.22° C | 38% | 959 hPa | - | - | - | - |
| 1777543513 | 16.67° C | 37% | 959 hPa | - | - | - | - |
| 1777543447 | 17.22° C | 36% | 959 hPa | - | - | - | - |
| 1777543382 | 16.67° C | 36% | 959 hPa | - | - | - | - |
| 1777543317 | 17.22° C | 37% | 959 hPa | - | - | - | - |
| 1777543251 | 17.22° C | 38% | 959 hPa | - | - | - | - |
| 1777543186 | 16.67° C | 36% | 959 hPa | - | - | - | - |
| 1777543120 | 16.67° C | 35% | 959 hPa | - | - | - | - |
| 1777543055 | 16.67° C | 35% | 959 hPa | - | - | - | - |
| 1777542989 | 17.78° C | 37% | 959 hPa | - | - | - | - |
| 1777542924 | 17.78° C | 35% | 959 hPa | - | - | - | - |
| 1777542859 | 17.78° C | 37% | 959 hPa | - | - | - | - |
| 1777542793 | 17.78° C | 35% | 959 hPa | - | - | - | - |
| 1777542728 | 17.78° C | 38% | 959 hPa | - | - | - | - |
| 1777542662 | 17.22° C | 37% | 959 hPa | - | - | - | - |
| 1777542597 | 17.22° C | 35% | 959 hPa | - | - | - | - |
| 1777542532 | 17.78° C | 35% | 959 hPa | - | - | - | - |
| 1777542466 | 18.33° C | 38% | 959 hPa | - | - | - | - |
| 1777542401 | 17.78° C | 38% | 959 hPa | - | - | - | - |
| 1777542335 | 17.22° C | 35% | 959 hPa | - | - | - | - |
| 1777542270 | 17.78° C | 34% | 959 hPa | - | - | - | - |
* Rain since midnight (hover to see other rain measurements)
** Current wind speed in m/s (hover to see current wind gust speed)